TimeCDT,TemperatureF,Dew PointF,Humidity,Sea Level PressureIn,VisibilityMPH,Wind Direction,Wind SpeedMPH,Gust SpeedMPH,PrecipitationIn,Events,Conditions,WindDirDegrees,DateUTC
12:54 AM,19.0,6.1,57,30.15,10.0,Calm,Calm,-,N/A,,Clear,0,2014-03-13 05:54:00
1:54 AM,18.0,8.1,65,30.15,10.0,Calm,Calm,-,N/A,,Clear,0,2014-03-13 06:54:00
2:54 AM,16.0,9.0,74,30.15,10.0,SE,4.6,-,N/A,,Clear,130,2014-03-13 07:54:00
3:54 AM,16.0,10.9,81,30.14,10.0,SSE,3.5,-,N/A,,Clear,150,2014-03-13 08:54:00
4:54 AM,16.0,12.0,84,30.14,10.0,SSE,6.9,-,N/A,,Clear,160,2014-03-13 09:54:00
5:54 AM,17.1,10.9,77,30.14,10.0,South,3.5,-,N/A,,Clear,180,2014-03-13 10:54:00
6:54 AM,17.1,10.9,77,30.14,10.0,SSE,4.6,-,N/A,,Clear,160,2014-03-13 11:54:00
7:54 AM,18.0,14.0,84,30.14,10.0,South,4.6,-,N/A,,Partly Cloudy,180,2014-03-13 12:54:00
8:54 AM,23.0,18.0,81,30.14,10.0,South,9.2,-,N/A,,Partly Cloudy,190,2014-03-13 13:54:00
9:54 AM,24.1,19.9,84,30.12,9.0,South,10.4,-,N/A,,Overcast,190,2014-03-13 14:54:00
10:54 AM,26.1,21.0,81,30.10,9.0,South,13.8,-,N/A,,Overcast,190,2014-03-13 15:54:00
11:54 AM,28.9,21.9,75,30.08,9.0,South,18.4,-,N/A,,Overcast,190,2014-03-13 16:54:00
12:54 PM,30.9,21.9,69,30.05,10.0,South,19.6,-,N/A,,Overcast,190,2014-03-13 17:54:00
1:54 PM,33.1,24.1,70,30.01,10.0,South,19.6,-,N/A,,Mostly Cloudy,190,2014-03-13 18:54:00
2:54 PM,34.0,26.1,73,30.00,10.0,South,17.3,-,N/A,,Partly Cloudy,190,2014-03-13 19:54:00
3:54 PM,35.1,28.0,76,29.98,10.0,South,17.3,-,N/A,,Clear,180,2014-03-13 20:54:00
4:54 PM,36.0,28.9,76,29.96,10.0,South,13.8,-,N/A,,Partly Cloudy,180,2014-03-13 21:54:00
5:54 PM,36.0,28.9,76,29.94,10.0,South,12.7,-,N/A,,Clear,180,2014-03-13 22:54:00
6:54 PM,34.0,28.9,82,29.94,10.0,South,11.5,-,N/A,,Clear,180,2014-03-13 23:54:00
7:54 PM,33.1,28.9,85,29.92,10.0,South,10.4,-,N/A,,Clear,170,2014-03-14 00:54:00
8:54 PM,33.1,28.9,85,29.90,9.0,South,9.2,-,N/A,,Clear,170,2014-03-14 01:54:00
9:54 PM,32.0,28.9,88,29.88,8.0,South,6.9,-,N/A,,Clear,170,2014-03-14 02:54:00
10:54 PM,35.1,32.0,89,29.86,9.0,South,10.4,-,N/A,,Clear,190,2014-03-14 03:54:00
11:54 PM,35.1,32.0,89,29.83,8.0,South,9.2,-,N/A,,Clear,190,2014-03-14 04:54:00